Location: ??????
(38.0131°N, 23.7723°E)
Time: 05:04:54
(UTC+00:00)

ATLAS 5 CENTAUR R/B - Pass Details

Date: 17 October 2021
Orbit: 497 x 1159 km, 63.4° (Epoch: 25 November)

Event Time Altitude Azimuth Distance (km) Brightness Sun altitude
Rises 16:36:03 0° 206° (SSW) 2,568 5.2 -10.9°
Reaches altitude 10° 16:38:08 10° 204° (SSW) 1,696 4.2 -11.3°
Maximum altitude 16:41:50 70° 120° (ESE) 556 1.1 -12.0°
Drops below altitude 10° 16:45:53 10° 37° (NE) 1,853 3.6 -12.8°
Enters shadow 16:46:25 - 37° (NE) 2,074 3.9 -12.9°
